Time,TemperatureF,DewpointF,PressureIn,WindDirection,WindDirectionDegrees,WindSpeedMPH,WindSpeedGustMPH,Humidity,HourlyPrecipIn,Conditions,Clouds,dailyrainin,SoftwareType,DateUTC
2013-02-05 00:01:00,23.0,19.0,29.93,SW,229,7.0,11.0,84,0.00,,,0.00,,2013-02-05 06:01:00,
2013-02-05 00:11:00,23.0,19.0,29.93,SW,229,7.0,11.0,84,0.00,,,0.00,,2013-02-05 06:11:00,
2013-02-05 00:21:00,23.0,19.0,29.91,SW,235,4.0,9.0,85,0.00,,,0.00,,2013-02-05 06:21:00,
2013-02-05 00:32:00,23.0,19.0,29.90,SSE,162,3.0,8.0,85,0.00,,,0.00,,2013-02-05 06:32:00,
2013-02-05 00:42:00,23.0,19.0,29.90,SSE,162,3.0,8.0,85,0.00,,,0.00,,2013-02-05 06:42:00,
2013-02-05 00:51:00,23.0,19.0,29.89,SSW,207,5.0,10.0,86,0.00,,,0.00,,2013-02-05 06:51:00,
2013-02-05 01:01:00,23.0,19.0,29.89,SSW,207,5.0,10.0,86,0.00,,,0.00,,2013-02-05 07:01:00,
2013-02-05 01:11:00,23.0,19.0,29.89,SSW,207,5.0,10.0,86,0.00,,,0.00,,2013-02-05 07:11:00,
2013-02-05 01:22:00,23.0,20.0,29.86,SSW,197,5.0,10.0,87,0.00,,,0.00,,2013-02-05 07:22:00,
2013-02-05 01:32:00,23.0,20.0,29.86,SSW,197,5.0,10.0,87,0.00,,,0.00,,2013-02-05 07:32:00,
2013-02-05 01:42:00,23.0,20.0,29.86,SSW,197,5.0,10.0,87,0.00,,,0.00,,2013-02-05 07:42:00,
2013-02-05 01:52:00,23.0,20.0,29.85,SSW,208,8.0,13.0,88,0.00,,,0.00,,2013-02-05 07:52:00,
2013-02-05 02:01:00,22.0,19.0,29.83,SSW,203,7.0,11.0,88,0.00,,,0.00,,2013-02-05 08:01:00,
2013-02-05 02:11:00,22.0,19.0,29.83,SSW,203,7.0,11.0,88,0.00,,,0.00,,2013-02-05 08:11:00,
2013-02-05 02:21:00,22.0,19.0,29.83,SSW,210,5.0,13.0,89,0.00,,,0.00,,2013-02-05 08:21:00,
2013-02-05 02:31:00,22.0,19.0,29.83,SW,222,5.0,8.0,89,0.00,,,0.00,,2013-02-05 08:31:00,
2013-02-05 02:41:00,22.0,19.0,29.83,SW,222,5.0,8.0,89,0.00,,,0.00,,2013-02-05 08:41:00,
2013-02-05 02:52:00,22.0,19.0,29.83,SW,229,8.0,13.0,89,0.00,,,0.00,,2013-02-05 08:52:00,
2013-02-05 03:02:00,23.0,20.0,29.83,SSW,212,12.0,18.0,89,0.00,,,0.00,,2013-02-05 09:02:00,
2013-02-05 03:11:00,23.0,20.0,29.83,SSW,212,12.0,18.0,89,0.00,,,0.00,,2013-02-05 09:11:00,
2013-02-05 03:21:00,23.0,20.0,29.83,SW,214,13.0,19.0,89,0.00,,,0.00,,2013-02-05 09:21:00,
2013-02-05 03:32:00,23.0,20.0,29.82,SW,232,12.0,20.0,89,0.00,,,0.00,,2013-02-05 09:32:00,
2013-02-05 03:42:00,23.0,20.0,29.82,SW,232,12.0,20.0,89,0.00,,,0.00,,2013-02-05 09:42:00,
2013-02-05 03:51:00,23.0,20.0,29.82,SW,222,12.0,19.0,89,0.00,,,0.00,,2013-02-05 09:51:00,
2013-02-05 04:02:00,23.0,20.0,29.82,SW,228,9.0,15.0,89,0.00,,,0.00,,2013-02-05 10:02:00,
2013-02-05 04:11:00,23.0,20.0,29.82,SW,228,9.0,15.0,89,0.00,,,0.00,,2013-02-05 10:11:00,
2013-02-05 04:21:00,23.0,21.0,29.81,SW,217,12.0,17.0,90,0.00,,,0.00,,2013-02-05 10:21:00,
2013-02-05 04:32:00,22.0,20.0,29.80,SW,225,11.0,16.0,90,0.00,,,0.00,,2013-02-05 10:32:00,
2013-02-05 04:42:00,22.0,20.0,29.80,SW,225,11.0,16.0,90,0.00,,,0.00,,2013-02-05 10:42:00,
2013-02-05 04:52:00,22.0,20.0,29.80,SW,219,9.0,15.0,90,0.00,,,0.00,,2013-02-05 10:52:00,
2013-02-05 05:01:00,22.0,20.0,29.80,SW,222,9.0,16.0,91,0.00,,,0.00,,2013-02-05 11:01:00,
2013-02-05 05:11:00,22.0,20.0,29.80,SW,222,9.0,16.0,91,0.00,,,0.00,,2013-02-05 11:11:00,
2013-02-05 05:22:00,22.0,20.0,29.80,SW,222,8.0,16.0,91,0.00,,,0.00,,2013-02-05 11:22:00,
2013-02-05 05:32:00,22.0,20.0,29.80,WSW,237,6.0,10.0,91,0.00,,,0.00,,2013-02-05 11:32:00,
2013-02-05 05:42:00,22.0,20.0,29.80,WSW,237,6.0,10.0,91,0.00,,,0.00,,2013-02-05 11:42:00,
2013-02-05 05:52:00,22.0,20.0,29.80,WSW,243,7.0,12.0,92,0.00,,,0.00,,2013-02-05 11:52:00,
2013-02-05 06:01:00,23.0,21.0,29.80,WSW,256,7.0,10.0,91,0.00,,,0.00,,2013-02-05 12:01:00,
2013-02-05 06:12:00,23.0,21.0,29.80,WSW,256,7.0,10.0,91,0.00,,,0.00,,2013-02-05 12:12:00,
2013-02-05 06:22:00,23.0,21.0,29.81,SW,222,4.0,10.0,91,0.00,,,0.00,,2013-02-05 12:22:00,
2013-02-05 06:32:00,24.0,22.0,29.80,SW,225,3.0,7.0,91,0.00,,,0.00,,2013-02-05 12:32:00,
2013-02-05 06:42:00,24.0,22.0,29.80,SW,225,3.0,7.0,91,0.00,,,0.00,,2013-02-05 12:42:00,
2013-02-05 06:52:00,24.0,22.0,29.81,WSW,243,0.0,5.0,91,0.00,,,0.00,,2013-02-05 12:52:00,
2013-02-05 07:01:00,24.0,22.0,29.82,WSW,252,0.0,2.0,91,0.00,,,0.00,,2013-02-05 13:01:00,
2013-02-05 07:12:00,24.0,22.0,29.82,WSW,252,0.0,2.0,91,0.00,,,0.00,,2013-02-05 13:12:00,
2013-02-05 07:22:00,25.0,23.0,29.81,West,281,0.0,1.0,91,0.00,,,0.00,,2013-02-05 13:22:00,
2013-02-05 07:32:00,25.0,23.0,29.82,WSW,237,0.0,2.0,91,0.00,,,0.00,,2013-02-05 13:32:00,
2013-02-05 07:42:00,25.0,23.0,29.82,WSW,237,0.0,2.0,91,0.00,,,0.00,,2013-02-05 13:42:00,
2013-02-05 07:52:00,25.0,23.0,29.82,WNW,297,0.0,2.0,91,0.00,,,0.00,,2013-02-05 13:52:00,
2013-02-05 08:01:00,25.0,22.0,29.83,WNW,288,0.0,2.0,90,0.00,,,0.00,,2013-02-05 14:01:00,
2013-02-05 08:12:00,25.0,22.0,29.83,WNW,288,0.0,2.0,90,0.00,,,0.00,,2013-02-05 14:12:00,
2013-02-05 08:21:00,26.0,24.0,29.83,WNW,291,1.0,7.0,91,0.00,,,0.00,,2013-02-05 14:21:00,
2013-02-05 08:32:00,27.0,24.0,29.84,NW,313,2.0,6.0,90,0.00,,,0.00,,2013-02-05 14:32:00,
2013-02-05 08:42:00,27.0,24.0,29.84,NW,313,2.0,6.0,90,0.00,,,0.00,,2013-02-05 14:42:00,
2013-02-05 08:52:00,28.0,25.0,29.85,West,281,2.0,6.0,88,0.00,,,0.00,,2013-02-05 14:52:00,
2013-02-05 09:02:00,28.0,25.0,29.85,WSW,248,2.0,7.0,87,0.00,,,0.00,,2013-02-05 15:02:00,
2013-02-05 09:11:00,28.0,25.0,29.85,WSW,248,2.0,7.0,87,0.00,,,0.00,,2013-02-05 15:11:00,
2013-02-05 09:21:00,29.0,26.0,29.87,WSW,256,2.0,8.0,88,0.00,,,0.00,,2013-02-05 15:21:00,
2013-02-05 09:32:00,30.0,27.0,29.88,West,274,3.0,6.0,87,0.00,,,0.00,,2013-02-05 15:32:00,
2013-02-05 09:42:00,30.0,27.0,29.88,West,274,3.0,6.0,87,0.00,,,0.00,,2013-02-05 15:42:00,
2013-02-05 09:52:00,31.0,27.0,29.89,NNE,23,2.0,6.0,85,0.00,,,0.00,,2013-02-05 15:52:00,
2013-02-05 10:01:00,31.0,27.0,29.90,NW,316,4.0,8.0,85,0.00,,,0.00,,2013-02-05 16:01:00,
2013-02-05 10:11:00,31.0,27.0,29.90,NW,316,4.0,8.0,85,0.00,,,0.00,,2013-02-05 16:11:00,
2013-02-05 10:22:00,32.0,28.0,29.90,NW,326,3.0,9.0,85,0.00,,,0.00,,2013-02-05 16:22:00,
2013-02-05 10:32:00,34.0,29.0,29.91,West,280,3.0,9.0,83,0.00,,,0.00,,2013-02-05 16:32:00,
2013-02-05 10:42:00,34.0,29.0,29.91,West,280,3.0,9.0,83,0.00,,,0.00,,2013-02-05 16:42:00,
2013-02-05 10:51:00,34.0,29.0,29.92,NW,304,4.0,8.0,82,0.00,,,0.00,,2013-02-05 16:51:00,
2013-02-05 11:01:00,34.0,29.0,29.93,NNW,330,5.0,10.0,82,0.00,,,0.00,,2013-02-05 17:01:00,
2013-02-05 11:11:00,34.0,29.0,29.93,NNW,330,5.0,10.0,82,0.00,,,0.00,,2013-02-05 17:11:00,
2013-02-05 11:21:00,34.0,29.0,29.95,WNW,288,5.0,11.0,83,0.00,,,0.00,,2013-02-05 17:21:00,
2013-02-05 11:32:00,34.0,29.0,29.95,NW,312,4.0,9.0,83,0.00,,,0.00,,2013-02-05 17:32:00,
2013-02-05 11:42:00,34.0,29.0,29.95,NW,312,4.0,9.0,83,0.00,,,0.00,,2013-02-05 17:42:00,
2013-02-05 11:52:00,34.0,29.0,29.96,WNW,297,4.0,9.0,83,0.00,,,0.00,,2013-02-05 17:52:00,
2013-02-05 12:02:00,35.0,30.0,29.97,NW,315,5.0,11.0,83,0.00,,,0.00,,2013-02-05 18:02:00,
2013-02-05 12:11:00,35.0,30.0,29.97,NW,315,5.0,11.0,83,0.00,,,0.00,,2013-02-05 18:11:00,
2013-02-05 12:22:00,35.0,30.0,29.97,NW,311,5.0,10.0,83,0.00,,,0.00,,2013-02-05 18:22:00,
2013-02-05 12:32:00,36.0,31.0,29.97,NNW,335,5.0,11.0,82,0.00,,,0.00,,2013-02-05 18:32:00,
2013-02-05 12:42:00,36.0,31.0,29.97,NNW,335,5.0,11.0,82,0.00,,,0.00,,2013-02-05 18:42:00,
2013-02-05 12:52:00,37.0,31.0,29.97,NW,324,6.0,14.0,78,0.00,,,0.00,,2013-02-05 18:52:00,
2013-02-05 13:02:00,37.0,30.0,29.97,WNW,286,6.0,11.0,75,0.00,,,0.00,,2013-02-05 19:02:00,
2013-02-05 13:11:00,37.0,30.0,29.97,WNW,286,6.0,11.0,75,0.00,,,0.00,,2013-02-05 19:11:00,
2013-02-05 13:21:00,37.0,29.0,29.98,NW,316,7.0,15.0,74,0.00,,,0.00,,2013-02-05 19:21:00,
2013-02-05 13:32:00,36.0,29.0,29.98,NW,305,7.0,14.0,77,0.00,,,0.00,,2013-02-05 19:32:00,
2013-02-05 13:42:00,36.0,29.0,29.98,NW,305,7.0,14.0,77,0.00,,,0.00,,2013-02-05 19:42:00,
2013-02-05 13:52:00,36.0,30.0,29.98,NW,304,4.0,13.0,78,0.00,,,0.00,,2013-02-05 19:52:00,
2013-02-05 14:01:00,36.0,30.0,29.98,NW,318,7.0,13.0,79,0.00,,,0.00,,2013-02-05 20:01:00,
2013-02-05 14:11:00,36.0,30.0,29.98,NW,318,7.0,13.0,79,0.00,,,0.00,,2013-02-05 20:11:00,
2013-02-05 14:21:00,36.0,30.0,30.00,NW,308,6.0,13.0,80,0.00,,,0.00,,2013-02-05 20:21:00,
2013-02-05 14:32:00,36.0,30.0,30.00,WNW,297,4.0,11.0,78,0.00,,,0.00,,2013-02-05 20:32:00,
2013-02-05 14:42:00,36.0,30.0,30.00,WNW,297,4.0,11.0,78,0.00,,,0.00,,2013-02-05 20:42:00,
2013-02-05 14:52:00,36.0,29.0,30.01,NNW,347,8.0,12.0,76,0.00,,,0.00,,2013-02-05 20:52:00,
2013-02-05 15:02:00,36.0,30.0,30.01,NNW,340,6.0,12.0,78,0.00,,,0.00,,2013-02-05 21:02:00,
2013-02-05 15:11:00,36.0,30.0,30.01,NNW,340,6.0,12.0,78,0.00,,,0.00,,2013-02-05 21:11:00,
2013-02-05 15:22:00,36.0,31.0,30.01,NNW,340,5.0,11.0,81,0.00,,,0.00,,2013-02-05 21:22:00,
2013-02-05 15:32:00,33.0,28.0,30.02,WNW,297,6.0,12.0,83,0.00,,,0.00,,2013-02-05 21:32:00,
2013-02-05 15:42:00,33.0,28.0,30.02,WNW,297,6.0,12.0,83,0.00,,,0.00,,2013-02-05 21:42:00,
2013-02-05 15:52:00,32.0,27.0,30.03,NNW,335,8.0,15.0,83,0.00,,,0.00,,2013-02-05 21:52:00,
2013-02-05 16:01:00,32.0,27.0,30.03,NNW,335,5.0,10.0,83,0.00,,,0.00,,2013-02-05 22:01:00,
2013-02-05 16:11:00,32.0,27.0,30.03,NNW,335,5.0,10.0,83,0.00,,,0.00,,2013-02-05 22:11:00,
2013-02-05 16:21:00,32.0,27.0,30.03,NNW,335,5.0,10.0,83,0.00,,,0.00,,2013-02-05 22:21:00,
2013-02-05 16:32:00,31.0,27.0,30.04,NNW,330,6.0,12.0,85,0.00,,,0.00,,2013-02-05 22:32:00,
2013-02-05 16:42:00,31.0,27.0,30.04,NNW,330,6.0,12.0,85,0.00,,,0.00,,2013-02-05 22:42:00,
2013-02-05 16:52:00,31.0,27.0,30.04,NNW,330,6.0,12.0,85,0.00,,,0.00,,2013-02-05 22:52:00,
2013-02-05 17:02:00,31.0,27.0,30.05,WNW,302,6.0,12.0,85,0.00,,,0.00,,2013-02-05 23:02:00,
2013-02-05 17:11:00,31.0,27.0,30.05,WNW,302,6.0,12.0,85,0.00,,,0.00,,2013-02-05 23:11:00,
2013-02-05 17:22:00,30.0,26.0,30.06,WNW,298,5.0,10.0,86,0.00,,,0.00,,2013-02-05 23:22:00,
2013-02-05 17:32:00,29.0,25.0,30.06,NW,320,6.0,11.0,86,0.00,,,0.00,,2013-02-05 23:32:00,
2013-02-05 17:42:00,29.0,25.0,30.06,NW,320,6.0,11.0,86,0.00,,,0.00,,2013-02-05 23:42:00,
2013-02-05 17:52:00,28.0,24.0,30.07,NNE,15,7.0,12.0,83,0.00,,,0.00,,2013-02-05 23:52:00,
2013-02-05 18:02:00,27.0,23.0,30.07,NW,311,5.0,9.0,85,0.00,,,0.00,,2013-02-06 00:02:00,
2013-02-05 18:11:00,27.0,23.0,30.07,NW,311,5.0,9.0,85,0.00,,,0.00,,2013-02-06 00:11:00,
2013-02-05 18:22:00,26.0,22.0,30.08,North,9,4.0,10.0,85,0.00,,,0.00,,2013-02-06 00:22:00,
2013-02-05 18:32:00,26.0,22.0,30.08,North,9,4.0,10.0,85,0.00,,,0.00,,2013-02-06 00:32:00,
2013-02-05 18:42:00,26.0,22.0,30.08,North,9,4.0,10.0,85,0.00,,,0.00,,2013-02-06 00:42:00,
2013-02-05 18:52:00,25.0,21.0,30.09,NNW,342,3.0,8.0,85,0.00,,,0.00,,2013-02-06 00:52:00,
2013-02-05 19:02:00,24.0,20.0,30.09,NNW,345,3.0,8.0,84,0.00,,,0.00,,2013-02-06 01:02:00,
2013-02-05 19:11:00,24.0,20.0,30.09,NNW,345,3.0,8.0,84,0.00,,,0.00,,2013-02-06 01:11:00,
2013-02-05 19:22:00,23.0,19.0,30.09,North,4,2.0,6.0,84,0.00,,,0.00,,2013-02-06 01:22:00,
2013-02-05 19:32:00,23.0,19.0,30.10,NNW,338,4.0,7.0,85,0.00,,,0.00,,2013-02-06 01:32:00,
2013-02-05 19:42:00,23.0,19.0,30.10,NNW,338,4.0,7.0,85,0.00,,,0.00,,2013-02-06 01:42:00,
2013-02-05 19:52:00,22.0,18.0,30.11,NNW,346,2.0,3.0,85,0.00,,,0.00,,2013-02-06 01:52:00,
2013-02-05 20:01:00,21.0,17.0,30.12,NNW,335,1.0,4.0,85,0.00,,,0.00,,2013-02-06 02:01:00,
2013-02-05 20:11:00,21.0,17.0,30.12,NNW,335,1.0,4.0,85,0.00,,,0.00,,2013-02-06 02:11:00,
2013-02-05 20:22:00,21.0,17.0,30.13,WNW,300,0.0,2.0,84,0.00,,,0.00,,2013-02-06 02:22:00,
2013-02-05 20:32:00,20.0,16.0,30.13,North,359,0.0,2.0,85,0.00,,,0.00,,2013-02-06 02:32:00,
2013-02-05 20:42:00,20.0,16.0,30.13,North,359,0.0,2.0,85,0.00,,,0.00,,2013-02-06 02:42:00,
2013-02-05 20:52:00,19.0,16.0,30.13,North,1,1.0,2.0,86,0.00,,,0.00,,2013-02-06 02:52:00,
2013-02-05 21:02:00,18.0,15.0,30.13,North,354,0.0,2.0,88,0.00,,,0.00,,2013-02-06 03:02:00,
2013-02-05 21:12:00,18.0,15.0,30.13,North,354,0.0,2.0,88,0.00,,,0.00,,2013-02-06 03:12:00,
2013-02-05 21:22:00,18.0,15.0,30.13,NNE,18,0.0,1.0,88,0.00,,,0.00,,2013-02-06 03:22:00,
2013-02-05 21:32:00,18.0,15.0,30.13,NNE,18,0.0,1.0,88,0.00,,,0.00,,2013-02-06 03:32:00,
2013-02-05 21:42:00,18.0,15.0,30.13,NNE,18,0.0,1.0,88,0.00,,,0.00,,2013-02-06 03:42:00,
2013-02-05 21:52:00,16.0,13.0,30.13,NNE,23,0.0,0.0,89,0.00,,,0.00,,2013-02-06 03:52:00,
2013-02-05 22:02:00,16.0,14.0,30.14,NW,316,0.0,1.0,90,0.00,,,0.00,,2013-02-06 04:02:00,
2013-02-05 22:11:00,16.0,14.0,30.14,NW,316,0.0,1.0,90,0.00,,,0.00,,2013-02-06 04:11:00,
2013-02-05 22:21:00,15.0,13.0,30.14,NW,316,0.0,1.0,90,0.00,,,0.00,,2013-02-06 04:21:00,
2013-02-05 22:32:00,14.0,12.0,30.15,NW,316,0.0,1.0,90,0.00,,,0.00,,2013-02-06 04:32:00,
2013-02-05 22:42:00,14.0,12.0,30.15,NW,316,0.0,1.0,90,0.00,,,0.00,,2013-02-06 04:42:00,
2013-02-05 22:52:00,14.0,12.0,30.17,NW,316,0.0,0.0,90,0.00,,,0.00,,2013-02-06 04:52:00,
2013-02-05 23:02:00,13.0,11.0,30.16,NW,316,0.0,0.0,91,0.00,,,0.00,,2013-02-06 05:02:00,
2013-02-05 23:12:00,13.0,11.0,30.16,NW,316,0.0,0.0,91,0.00,,,0.00,,2013-02-06 05:12:00,
2013-02-05 23:22:00,14.0,12.0,30.16,NW,316,0.0,1.0,92,0.00,,,0.00,,2013-02-06 05:22:00,
2013-02-05 23:32:00,13.0,11.0,30.16,NE,35,0.0,0.0,91,0.00,,,0.00,,2013-02-06 05:32:00,
2013-02-05 23:41:00,13.0,11.0,30.16,NE,35,0.0,0.0,91,0.00,,,0.00,,2013-02-06 05:41:00,
2013-02-05 23:52:00,13.0,11.0,30.16,NE,36,0.0,0.0,91,0.00,,,0.00,,2013-02-06 05:52:00,